User: anonymous   Login
Location: Unspecified
(0.0000°N, 0.0000°E)
Time: 10:46:03
(UTC+02:00)
Language:

Cosmos 1300 - Orbit

View from above orbital plane
View from above orbital plane
View from above satellite
View from above satellite

Ground track
Ground track

The orbit data is extracted from the following two-line orbital elements,

1 12785U 81082A   18116.55408132 +.00000309 +00000-0 +13982-4 0  9996
2 12785 082.5009 123.4114 0001002 131.3031 350.6373 15.17119197999118
Epoch (UTC): 26 April 2018 13:17:52
Eccentricity: 0.0001002
inclination: 82.5009°
perigee height: 514 km
apogee height: 515 km
right ascension of ascending node: 123.4114°
argument of perigee: 131.3031°
revolutions per day: 15.17119197
mean anomaly at epoch: 350.6373°
orbit number at epoch: 99911

The dashed part of the orbit path shows where the satellite is in the earth's shadow,  

DLR